{"data":{"norad_id":68577,"epoch":"2026-09-20T00:11:52.344672Z","epoch_age_seconds":108896,"freshness":"FRESH","line1":"1 68577U 26072E   26263.00824473  .00001792  00000+0  26400-3 0  9990","line2":"2 68577  51.9017 131.3756 0000880 101.1672 258.9389 14.79925758 25231","mean_motion":14.79925758,"eccentricity":8.8e-5,"inclination_deg":51.9017,"raan_deg":131.3756,"arg_perigee_deg":101.1672,"mean_anomaly_deg":258.9389,"bstar":0.000264,"rev_number":2523,"period_min":97.302178316434,"perigee_km":628.94181326449,"apogee_km":630.17516767081,"semimajor_km":7007.6954904676,"source":"CELESTRAK","updated_at":"2026-09-20T09:00:24.319090Z"}}